Larsen: Past 24 Hour Conditions

 

Resolute Airport

07:00 PM CDT 01 October 2014
This table is a summary of hourly weather conditions for the past 24 hours.
Date / Time
(CDT)
Wind(knots) Conditions Visibility(km) Pressure(kPa) Air tempC) Relative humidity(%) Dew pointC) Wind Chill
01 October 2014
19:00 NNW 23 Drifting Snow 24 102.0 -10 72 -14 -21
18:00 NNW 22 Drifting Snow 24 102.0 -10 74 -13 -21
17:00 N 22 Mainly Sunny 24 102.0 -9 73 -13 -20
16:00 NNW 28 gust 33 Drifting Snow 24 102.0 -9 72 -13 -21
15:00 NW 24 Drifting Snow 24 102.0 -10 73 -14 -21
14:00 NNW 25 Drifting Snow 24 102.0 -9 72 -13 -20
13:00 NNW 22 Sunny 24 102.0 -9 70 -13 -19
12:00 NNW 23 Mainly Sunny 24 102.0 -10 73 -14 -21
11:00 NNW 21 Drifting Snow 24 102.0 -11 77 -14 -22
10:00 N 20 Drifting Snow 24 101.9 -11 78 -15 -22
9:00 N 27 gust 32 Drifting Snow 24 101.9 -11 80 -14 -24
8:00 NNW 26 gust 31 Drifting Snow 24 101.9 -11 82 -13 -23
7:00 NNW 26 Clear 24 101.9 -11 78 -14 -23
6:00 NNW 14 gust 20 Clear 24 102.0 -11 79 -14 -20
5:00 NW 24 Clear 24 101.9 -11 78 -14 -23
4:00 NNW 23 Clear 24 101.9 -11 76 -15 -23
3:00 NNW 22 Clear 24 101.8 -11 77 -14 -22
2:00 NNW 22 Clear 24 101.8 -10 79 -13 -21
1:00 NNW 21 Clear 24 101.9 -10 76 -14 -21
0:00 NW 27 Drifting Snow 24 101.8 -10 77 -13 -22
30 September 2014
23:00 NW 23 gust 29 Drifting Snow 24 101.8 -11 79 -13 -22
22:00 NW 30 Drifting Snow 24 101.7 -10 79 -13 -23
21:00 NW 22 Mainly Clear 24 101.8 -11 77 -14 -22
20:00 NW 14 Mainly Clear 24 101.8 -11 81 -14 -21
19:00 NW 18 gust 23 Mainly Clear 24 101.8 -11 82 -13 -21
 
Map of Arctic - Eastern Arctic marine weather areas Baker Lake Airport Chesterfield Inlet Airport Coral Harbour Airport Gjoa Haven Airport Kugaaruk Airport Rankin Inlet Airport Shepherd Bay Airport Whale Cove Airport Arctic Bay Brevoort Island Qikiqtarjuaq Airport Cape Dorset Airport Cape Dyer Cape Hooper Clyde Airport Grise Fiord Airport Hall Beach Airport Igloolik Airport Iqaluit Airport Longstaff Bluff Pangnirtung Airport Pond Inlet Airport Repulse Bay Airport Resolute Airport Resolution Island Rowley Island Airport Taloyoak Airport Wager Bay Akulivik Airport Ivujivik Airport Puvirnituq Airport Kangiqsujuaq Airport Kangirsuk Airport Quaqtaq Airport Tasiujaq Airport Cape Kakkiviak Cape Kiglapait Nain Airport Saglek Cape Mercy Kimmirut Airport Aupaluk Airport Salluit Airport Kangiqsualujjuaq Airport Fort Ross
Legend: buoyBuoy land stationLand Station